�������l�o���
Date,Time,MP-1(��Sv/h),MP-2(��Sv/h),MP-3(��Sv/h),MP-4(��Sv/h),MP-5(��Sv/h),MP-6(��Sv/h),MP-7(��Sv/h),MP-8(��Sv/h),����,����(m/s),���J
2021/10/31,00:00,0.582,0.874,0.556,1.066,0.751,0.355,0.615,0.579,��쐼,2.3,��
2021/10/31,00:10,0.581,0.875,0.555,1.067,0.751,0.356,0.615,0.581,��쐼,2.3,��
2021/10/31,00:20,0.582,0.875,0.554,1.064,0.752,0.355,0.617,0.581,��쐼,2.6,��
2021/10/31,00:30,0.582,0.876,0.554,1.067,0.751,0.355,0.615,0.581,�쐼,2.6,��
2021/10/31,00:40,0.581,0.874,0.555,1.066,0.750,0.355,0.617,0.581,��쐼,3.0,��
2021/10/31,00:50,0.581,0.876,0.555,1.066,0.751,0.355,0.616,0.578,��쐼,2.8,��
2021/10/31,01:00,0.581,0.874,0.554,1.067,0.750,0.354,0.616,0.580,��쐼,2.0,��
2021/10/31,01:10,0.581,0.876,0.555,1.066,0.751,0.354,0.616,0.580,��쐼,2.3,��
2021/10/31,01:20,0.582,0.875,0.555,1.066,0.749,0.355,0.616,0.581,��쐼,1.7,��
2021/10/31,01:30,0.581,0.874,0.556,1.066,0.751,0.355,0.616,0.580,�쐼,1.7,��
2021/10/31,01:40,0.582,0.873,0.554,1.067,0.749,0.354,0.617,0.580,�쐼,1.5,��
2021/10/31,01:50,0.582,0.874,0.554,1.065,0.750,0.354,0.615,0.580,���쐼,1.7,��
2021/10/31,02:00,0.581,0.875,0.556,1.064,0.749,0.353,0.616,0.578,�쐼,2.5,��
2021/10/31,02:10,0.581,0.876,0.556,1.066,0.750,0.354,0.615,0.581,�쐼,2.6,��
2021/10/31,02:20,0.581,0.875,0.556,1.066,0.749,0.355,0.615,0.579,��쐼,2.0,��
2021/10/31,02:30,0.582,0.875,0.555,1.066,0.749,0.355,0.615,0.579,�쐼,2.0,��
2021/10/31,02:40,0.579,0.874,0.554,1.066,0.750,0.356,0.614,0.578,�쐼,2.3,��
2021/10/31,02:50,0.584,0.874,0.553,1.066,0.749,0.356,0.616,0.578,�쐼,2.2,��
2021/10/31,03:00,0.583,0.876,0.553,1.066,0.750,0.355,0.615,0.581,���쐼,2.2,��
2021/10/31,03:10,0.581,0.873,0.555,1.068,0.751,0.356,0.616,0.580,��쐼,0.9,��
2021/10/31,03:20,0.580,0.874,0.555,1.064,0.749,0.356,0.616,0.580,��쐼,1.4,��
2021/10/31,03:30,0.582,0.876,0.553,1.067,0.749,0.354,0.616,0.580,��쐼,2.0,��
2021/10/31,03:40,0.583,0.875,0.556,1.065,0.749,0.355,0.616,0.581,��쐼,2.0,��
2021/10/31,03:50,0.582,0.875,0.555,1.064,0.750,0.355,0.616,0.580,�쐼,2.6,��
2021/10/31,04:00,0.583,0.873,0.555,1.067,0.751,0.356,0.616,0.579,�쐼,2.0,��
2021/10/31,04:10,0.581,0.873,0.555,1.066,0.750,0.353,0.616,0.579,��쐼,1.2,��
2021/10/31,04:20,0.581,0.876,0.556,1.065,0.751,0.355,0.615,0.581,�쐼,1.7,��
2021/10/31,04:30,0.579,0.875,0.554,1.067,0.749,0.355,0.617,0.581,��,0.9,��
2021/10/31,04:40,0.584,0.872,0.554,1.066,0.748,0.355,0.616,0.579,��쓌,0.6,��
2021/10/31,04:50,0.582,0.874,0.555,1.065,0.750,0.355,0.616,0.579,�쓌,0.8,��
2021/10/31,05:00,0.582,0.873,0.556,1.065,0.750,0.354,0.617,0.580,��쐼,1.2,��
2021/10/31,05:10,0.583,0.874,0.555,1.066,0.749,0.356,0.616,0.580,��,1.2,��
2021/10/31,05:20,0.582,0.875,0.556,1.065,0.750,0.354,0.616,0.580,��,1.2,��
2021/10/31,05:30,0.582,0.874,0.554,1.068,0.749,0.356,0.615,0.580,��,1.7,��
2021/10/31,05:40,0.582,0.875,0.553,1.067,0.752,0.356,0.615,0.581,��,2.3,��
2021/10/31,05:50,0.581,0.875,0.554,1.066,0.749,0.354,0.615,0.581,��,2.6,��
2021/10/31,06:00,0.582,0.876,0.554,1.066,0.750,0.355,0.616,0.580,��쐼,2.5,��
2021/10/31,06:10,0.582,0.873,0.554,1.063,0.750,0.356,0.614,0.580,��쐼,2.0,��
2021/10/31,06:20,0.580,0.874,0.556,1.066,0.751,0.356,0.614,0.579,��쐼,2.3,��
2021/10/31,06:30,0.581,0.874,0.554,1.066,0.748,0.354,0.615,0.581,��쐼,3.0,��
2021/10/31,06:40,0.580,0.873,0.556,1.066,0.750,0.355,0.616,0.579,��쐼,2.5,��
2021/10/31,06:50,0.583,0.873,0.556,1.066,0.748,0.355,0.614,0.580,��,3.2,��
2021/10/31,07:00,0.581,0.872,0.556,1.066,0.749,0.355,0.616,0.580,��쐼,2.0,��
2021/10/31,07:10,0.581,0.874,0.555,1.066,0.750,0.355,0.616,0.579,��,3.0,��
2021/10/31,07:20,0.581,0.874,0.554,1.065,0.749,0.355,0.617,0.581,��,2.3,��
2021/10/31,07:30,0.581,0.874,0.555,1.066,0.749,0.355,0.617,0.579,��,2.6,��
2021/10/31,07:40,0.583,0.875,0.553,1.068,0.750,0.355,0.615,0.582,��쐼,2.5,��
2021/10/31,07:50,0.584,0.874,0.555,1.066,0.749,0.355,0.618,0.580,��,2.6,��
2021/10/31,08:00,0.583,0.876,0.556,1.067,0.750,0.356,0.616,0.581,��,2.6,��
2021/10/31,08:10,0.582,0.877,0.554,1.067,0.751,0.356,0.616,0.580,��,1.5,��
2021/10/31,08:20,0.585,0.877,0.555,1.065,0.749,0.357,0.617,0.581,��,2.6,��
2021/10/31,08:30,0.584,0.873,0.557,1.065,0.749,0.357,0.617,0.581,��,2.6,��
2021/10/31,08:40,0.584,0.872,0.555,1.067,0.750,0.356,0.615,0.582,��,0.9,��
2021/10/31,08:50,0.583,0.873,0.555,1.068,0.754,0.356,0.615,0.583,�쓌,1.7,��
2021/10/31,09:00,0.585,0.873,0.556,1.068,0.751,0.355,0.615,0.580,��쓌,2.6,��
2021/10/31,09:10,0.583,0.873,0.558,1.070,0.753,0.357,0.616,0.581,���쓌,1.9,��
2021/10/31,09:20,0.584,0.874,0.556,1.069,0.751,0.355,0.616,0.582,�쓌,2.2,��
2021/10/31,09:30,0.585,0.876,0.557,1.069,0.752,0.356,0.615,0.582,�쓌,1.7,��
2021/10/31,09:40,0.584,0.876,0.558,1.069,0.753,0.356,0.614,0.583,���쓌,2.0,��
2021/10/31,09:50,0.584,0.875,0.557,1.070,0.751,0.356,0.616,0.582,���쓌,1.7,��
2021/10/31,10:00,0.584,0.874,0.557,1.070,0.752,0.356,0.617,0.581,���쓌,2.0,��
2021/10/31,10:10,0.581,0.875,0.560,1.070,0.752,0.355,0.616,0.582,��,1.4,��
2021/10/31,10:20,0.583,0.877,0.556,1.068,0.750,0.353,0.616,0.580,�쓌,1.4,��
2021/10/31,10:30,0.583,0.877,0.556,1.070,0.751,0.353,0.617,0.580,��,0.9,��
2021/10/31,10:40,0.582,0.876,0.558,1.069,0.752,0.355,0.615,0.582,�k��,1.4,��
2021/10/31,10:50,0.583,0.877,0.560,1.070,0.752,0.355,0.615,0.581,���k��,0.9,��
2021/10/31,11:00,0.583,0.876,0.558,1.071,0.754,0.354,0.616,0.580,�쓌,1.2,��
2021/10/31,11:10,0.583,0.877,0.558,1.068,0.752,0.355,0.616,0.581,���쓌,2.6,��
2021/10/31,11:20,0.582,0.874,0.558,1.072,0.751,0.354,0.616,0.581,���쓌,2.3,��
2021/10/31,11:30,0.583,0.877,0.557,1.069,0.751,0.354,0.616,0.581,��,1.5,��
2021/10/31,11:40,0.582,0.877,0.557,1.071,0.749,0.355,0.615,0.580,��,1.5,��
2021/10/31,11:50,0.585,0.876,0.557,1.069,0.751,0.354,0.615,0.580,���쓌,1.5,��
2021/10/31,12:00,0.583,0.877,0.558,1.068,0.752,0.356,0.616,0.579,�쓌,1.2,��
2021/10/31,12:10,0.582,0.876,0.556,1.069,0.752,0.356,0.616,0.580,�쓌,0.9,��
2021/10/31,12:20,0.582,0.877,0.559,1.070,0.749,0.355,0.616,0.581,-,CALM,��
2021/10/31,12:30,0.583,0.879,0.558,1.070,0.753,0.357,0.618,0.579,��,1.2,��
2021/10/31,12:40,0.584,0.880,0.558,1.070,0.750,0.356,0.616,0.580,��,1.5,��
2021/10/31,12:50,0.583,0.879,0.557,1.069,0.753,0.355,0.617,0.579,�쓌,2.2,��
2021/10/31,13:00,0.584,0.881,0.558,1.070,0.752,0.356,0.618,0.579,�쓌,2.0,��
2021/10/31,13:10,0.583,0.877,0.555,1.070,0.752,0.353,0.616,0.580,�쓌,2.6,��
2021/10/31,13:20,0.585,0.878,0.557,1.068,0.751,0.354,0.616,0.578,��쓌,2.5,��
2021/10/31,13:30,0.584,0.879,0.559,1.069,0.750,0.355,0.616,0.579,��쓌,2.3,��
2021/10/31,13:40,0.583,0.876,0.559,1.069,0.752,0.356,0.617,0.578,��쓌,1.9,��
2021/10/31,13:50,0.583,0.879,0.557,1.069,0.752,0.356,0.616,0.580,��쓌,1.7,��
2021/10/31,14:00,0.586,0.879,0.559,1.071,0.752,0.357,0.617,0.579,�쓌,1.5,��
2021/10/31,14:10,0.583,0.881,0.558,1.070,0.751,0.356,0.614,0.581,�쓌,2.6,��
2021/10/31,14:20,0.583,0.880,0.559,1.069,0.754,0.355,0.617,0.580,�쓌,2.5,��
2021/10/31,14:30,0.583,0.882,0.558,1.072,0.751,0.355,0.619,0.580,��쓌,2.0,��
2021/10/31,14:40,0.582,0.882,0.559,1.070,0.754,0.355,0.615,0.579,��쓌,1.7,��
2021/10/31,14:50,0.584,0.879,0.557,1.069,0.753,0.355,0.616,0.580,��쓌,2.3,��
2021/10/31,15:00,0.586,0.880,0.557,1.069,0.754,0.356,0.616,0.580,�쓌,3.0,��
2021/10/31,15:10,0.584,0.881,0.559,1.069,0.754,0.358,0.617,0.581,��쓌,2.0,��
2021/10/31,15:20,0.586,0.880,0.558,1.070,0.753,0.356,0.617,0.580,��,1.5,��
2021/10/31,15:30,0.586,0.883,0.558,1.069,0.753,0.356,0.616,0.581,��쓌,1.5,��
2021/10/31,15:40,0.585,0.880,0.558,1.070,0.752,0.357,0.616,0.581,��쓌,1.5,��
2021/10/31,15:50,0.584,0.880,0.558,1.067,0.755,0.357,0.616,0.582,��쓌,0.8,��
2021/10/31,16:00,0.585,0.880,0.558,1.068,0.754,0.357,0.617,0.580,���쓌,0.6,��
2021/10/31,16:10,0.586,0.879,0.559,1.069,0.753,0.357,0.617,0.581,��쓌,0.9,��
2021/10/31,16:20,0.585,0.880,0.558,1.070,0.753,0.357,0.615,0.580,�k��,0.6,��
2021/10/31,16:30,0.585,0.880,0.558,1.070,0.754,0.356,0.617,0.582,�k��,0.8,��
2021/10/31,16:40,0.585,0.879,0.558,1.070,0.752,0.356,0.617,0.581,�k,1.7,��
2021/10/31,16:50,0.584,0.881,0.557,1.068,0.755,0.356,0.616,0.582,���k��,1.1,��
2021/10/31,17:00,0.585,0.879,0.558,1.069,0.755,0.357,0.615,0.582,�k��,1.5,��
2021/10/31,17:10,0.586,0.879,0.559,1.070,0.754,0.357,0.616,0.582,�k�k��,1.7,��
2021/10/31,17:20,0.586,0.880,0.558,1.071,0.754,0.356,0.617,0.580,�k��,1.5,��
2021/10/31,17:30,0.585,0.880,0.557,1.070,0.755,0.356,0.617,0.582,���쐼,0.8,��
2021/10/31,17:40,0.585,0.880,0.557,1.070,0.751,0.355,0.618,0.583,-,CALM,��
2021/10/31,17:50,0.585,0.879,0.557,1.069,0.752,0.358,0.617,0.582,�쐼,0.8,��
2021/10/31,18:00,0.586,0.880,0.557,1.069,0.752,0.357,0.617,0.582,��쐼,0.8,��
2021/10/31,18:10,0.585,0.879,0.558,1.069,0.753,0.356,0.618,0.582,��쐼,1.7,��
2021/10/31,18:20,0.584,0.878,0.558,1.070,0.752,0.355,0.617,0.584,��쐼,1.4,��
2021/10/31,18:30,0.586,0.878,0.558,1.070,0.753,0.357,0.618,0.582,�쐼,1.2,��
2021/10/31,18:40,0.585,0.878,0.559,1.070,0.752,0.355,0.619,0.582,��쐼,1.5,��
2021/10/31,18:50,0.584,0.877,0.558,1.071,0.752,0.356,0.619,0.582,�쐼,2.2,��
2021/10/31,19:00,0.586,0.877,0.559,1.068,0.751,0.356,0.617,0.581,��쐼,3.0,��
2021/10/31,19:10,0.585,0.879,0.556,1.069,0.754,0.358,0.618,0.581,��쐼,3.1,��
2021/10/31,19:20,0.586,0.878,0.558,1.071,0.753,0.356,0.620,0.582,��쐼,2.9,��
2021/10/31,19:30,0.584,0.877,0.557,1.068,0.752,0.357,0.617,0.582,�쐼,2.8,��
2021/10/31,19:40,0.585,0.876,0.558,1.069,0.754,0.356,0.618,0.584,�쐼,3.4,��
2021/10/31,19:50,0.586,0.876,0.557,1.071,0.753,0.358,0.619,0.582,�쐼,4.2,��
2021/10/31,20:00,0.584,0.879,0.557,1.068,0.753,0.358,0.617,0.582,�쐼,3.3,��
2021/10/31,20:10,0.585,0.877,0.556,1.070,0.753,0.356,0.618,0.581,��쐼,3.6,��
2021/10/31,20:20,0.584,0.879,0.556,1.066,0.753,0.356,0.618,0.581,�쐼,3.3,��
2021/10/31,20:30,0.585,0.878,0.557,1.070,0.753,0.355,0.618,0.581,��쐼,3.5,��
2021/10/31,20:40,0.586,0.877,0.555,1.071,0.753,0.356,0.619,0.581,�쐼,2.9,��
2021/10/31,20:50,0.584,0.877,0.557,1.068,0.752,0.356,0.618,0.580,���쐼,1.9,��
2021/10/31,21:00,0.584,0.877,0.557,1.069,0.752,0.356,0.616,0.580,���k��,1.1,��
2021/10/31,21:10,0.585,0.877,0.556,1.069,0.751,0.356,0.618,0.582,�k��,0.9,��
2021/10/31,21:20,0.585,0.876,0.559,1.070,0.752,0.356,0.619,0.581,���k��,0.6,��
2021/10/31,21:30,0.585,0.878,0.556,1.068,0.752,0.357,0.619,0.581,���k��,1.5,��
2021/10/31,21:40,0.585,0.877,0.558,1.069,0.753,0.355,0.617,0.581,���k��,0.9,��
2021/10/31,21:50,0.582,0.877,0.557,1.067,0.754,0.356,0.618,0.579,�k�k��,0.9,��
2021/10/31,22:00,0.585,0.876,0.556,1.068,0.753,0.356,0.617,0.583,�k��,1.1,��
2021/10/31,22:10,0.584,0.877,0.557,1.068,0.752,0.355,0.617,0.582,�k,0.9,��
2021/10/31,22:20,0.583,0.878,0.556,1.069,0.751,0.355,0.617,0.582,�k��,3.3,��
2021/10/31,22:30,0.584,0.878,0.557,1.069,0.751,0.356,0.618,0.580,�k��,4.3,��
2021/10/31,22:40,0.584,0.877,0.557,1.071,0.751,0.357,0.618,0.582,�k�k��,3.4,��
2021/10/31,22:50,0.586,0.876,0.557,1.069,0.752,0.357,0.616,0.581,�k�k��,2.9,��
2021/10/31,23:00,0.584,0.878,0.555,1.071,0.751,0.357,0.617,0.582,�k�k��,3.9,��
2021/10/31,23:10,0.584,0.876,0.556,1.069,0.752,0.356,0.618,0.580,�k�k��,5.2,��
2021/10/31,23:20,0.585,0.877,0.557,1.070,0.751,0.357,0.618,0.582,�k�k��,5.7,��
2021/10/31,23:30,0.583,0.875,0.556,1.071,0.750,0.355,0.617,0.580,�k��,3.8,��
2021/10/31,23:40,0.585,0.877,0.558,1.070,0.752,0.355,0.617,0.582,�k��,4.2,��
2021/10/31,23:50,0.586,0.877,0.557,1.071,0.752,0.356,0.618,0.581,�k�k��,3.7,��
